カタログに戻る

USA 8

運用中軍事MEO
NORAD 15543·PAYLOAD·🇺🇸 United States

打ち上げ Jan 24, 1985 から Cape Canaveral Space Force Station

Loading…

次のパス (今後24時間)

TLE

最新Source: Space-Track

元期: Sep 13, 2026, 17:34 UTC

1 15543U 85010B   26256.73219453 -.00000029  00000-0  00000-0 0  9999
2 15543  12.4901 312.6956 0121878  57.7894 309.6356  0.99805731  8716

AllMySatでUSA 8をリアルタイム追跡

Download on the App Store